Regional Weather Roundup
Issued by NWS Green Bay, WI

Home | Current Version | Previous Version | Graphics & Text | Print | Product List | Glossary Off
Versions: 1 2 3 4 5 6 7 8 9 10 11 12 13 14 15 16 17 18 19 20 21 22 23 24 25 26 27 28 29 30 31 32 33 34 35 36 37 38 39 40 41 42 43 44 45 46 47 48 49 50

000
ASUS43 KGRB 252200
RWRGRB

NORTH-CENTRAL AND NORTHEAST WISCONSIN REGIONAL WEATHER ROUNDUP
NATIONAL WEATHER SERVICE GREEN BAY WI
500 PM CDT MON JUL 25 2016

WIZ005-009-010>012-018-019-252300-
NORTH CENTRAL WISCONSIN

CITY           SKY/WX    TMP DP  RH WIND       PRES   REMARKS
IRONWOOD       SUNNY     79  59  50 NW13      29.98S
MANITOWISH WTR NOT AVBL
ARBOR VITAE    NOT AVBL
EAGLE RIVER    NOT AVBL
LAND O LAKES   NOT AVBL
RHINELANDER    MOSUNNY   81  56  42 NW9       30.02S
PHILLIPS       NOT AVBL
ANTIGO         NOT AVBL
TOMAHAWK       NOT AVBL
MERRILL        NOT AVBL
$$

WIZ013-073-252300-
NORTHEAST WISCONSIN

CITY           SKY/WX    TMP DP  RH WIND       PRES   REMARKS
IRON MOUNTAIN  SUNNY     83  55  38 N15       29.96S
MARINETTE      SUNNY    N/A N/A N/A VRB7      29.95S
$$

WIZ017-030-035>037-045-252300-
CENTRAL WISCONSIN

CITY           SKY/WX    TMP DP  RH WIND       PRES   REMARKS
MEDFORD        NOT AVBL
WAUSAU         MOSUNNY   82  58  43 W17G23    30.00R
MOSINEE        NOT AVBL
MARSHFIELD     SUNNY     82  59  45 NW12      30.02S
WISC RAPIDS    SUNNY     84  57  39 NW9       30.02S
STEVENS POINT  NOT AVBL
WAUPACA        NOT AVBL
SHAWANO        NOT AVBL
CLINTONVILLE   NOT AVBL
WAUTOMA        SUNNY     83  61  47 NW8       30.00S
$$

WIZ038-039-048-051-252300-
FOX VALLEY

CITY           SKY/WX    TMP DP  RH WIND       PRES   REMARKS
NWS GREEN BAY  MOSUNNY   84  64  50 W12G17    29.97R
APPLETON       PTSUNNY   81  55  41 NW8       29.98R
OSHKOSH        MOSUNNY   84  62  47 NW7       29.98S
FOND DU LAC    MOSUNNY   85  62  46 NW15      29.99S
$$

WIZ022-050-052-252300-
EAST CENTRAL WISCONSIN

CITY           SKY/WX    TMP DP  RH WIND       PRES   REMARKS
EPHRAIM        NOT AVBL
WASHINGTON ISL NOT AVBL
STURGEON BAY   SUNNY     84  61  45 NW9       29.96S
MANITOWOC      NOT AVBL
SHEBOYGAN      SUNNY     83  63  50 W6        29.98S
$$

LMZ563-521-522-541>543-252300-
LAKESHORE

STATION/POSITION TIME  TEMP    WIND        PRES    VSBY  WAVE
                       AIR SEA DIR/SP/G                  HT/PER
                 (UTC) (F)     (DEG/KT/KT) (MB)    (MI)  (FT/S)
SHEBOYGAN LKSHOR 2100   82     280/ 10/ 12 1014.8F
KEWAUNEE LKSHORE 2100   83     330/  8/ 12 1013.9F
ALGOMA MARINA    2113          320/ 13/ 16   N/A
NORTHPORT PIER   2100   80     310/  5/  9 1013.5S
N MID LAKE BUOY  2050   72 71  220/  6/  6 1012.8F         1/ 5
S GREEN BAY BUOY 2100   79 75  290/  8/ 10   N/A
SISTER BAY LKSHO 2106   79     340/  6/  6   N/A
CHAMBERS ISLAND  2100   83     300/  4/  9 1013.5S
MENOMINEE LKSHOR 2100   81     320/  7/ 13 1013.0S
$$




USA.gov is the U.S. government's official web portal to all federal, state and local government web resources and services.